CAPE
0 0 0 0 0 0 0 0 0 0 0 0 0 0 0 0 0 0 0 0 0 0 0 0 0 0 0 0 12 931 1546 1222 1081 810 1110 1443 1303 1874 2029 2166 1854 2324 2358 2365 2449 2513 2491 2413 2386 2414 2380 2376 2384 2482 2273 2263 2319 2318 2186 2006 1908 1877 1989 1808 1567 1712 1470 1278 1228 1252 1244 1305 1614 1275 1245 1189 1126 757 814 1002 863 1092 1184 1104 1032 929
0 0 0 0 0 0 0 0 0 0 0 0 0 0 0 0 0 0 0 0 0 0 0 0 0 0 0 0 0 167 763 429 761 1268 1712 1384 1601 1884 1971 1936 2084 2175 2201 2328 2202 2230 2382 2522 2432 2457 2446 2430 2412 2328 2296 2370 2257 2236 2128 2062 1922 1681 1828 1737 1652 1628 1545 1508 1247 1280 1274 1388 1272 1145 1137 964 721 945 876 904 942 1150 1326 1220 1104 888
0 0 0 0 0 0 0 0 0 0 0 0 0 0 0 0 0 0 0 0 0 0 0 0 0 0 0 6 36 363 485 1235 1537 1829 1674 1651 1292 1333 1739 1829 2038 2092 2170 2200 2002 2417 2378 2495 2562 2532 2444 2352 2326 2199 2353 2446 2295 2000 1910 1946 1858 1799 1774 1495 1642 1624 1524 1424 1384 1603 1590 1423 1249 1193 1296 1200 1217 1176 1117 1273 1277 1121 1203 1206 1162 970
0 0 0 0 0 0 0 0 0 0 0 0 0 0 0 0 0 0 0 0 0 0 0 0 0 0 4 95 214 323 852 944 986 1219 1560 1802 1740 1587 1742 1755 1794 2059 1982 2172 2348 2245 2273 2509 2546 2402 2279 2168 2172 2071 2176 2095 1950 1918 1737 1626 1600 1700 1804 1782 1869 1613 1608 1387 1383 1191 1371 1128 1006 1048 1090 1178 1349 1311 1444 1541 1502 1326 1274 1221 1246 1132
0 0 0 0 0 0 0 0 0 0 0 0 0 0 0 0 0 0 0 0 0 0 0 0 0 0 0 30 96 456 484 608 610 1000 1310 1386 1583 1799 1917 2006 2048 2117 2140 2232 2159 2080 2236 2358 2486 2328 2214 2044 2200 1932 2201 1996 1857 1856 1884 1873 1920 1726 1538 1589 1626 1500 1498 1584 1489 1496 1184 1054 1088 1254 1096 1448 1615 1614 1607 1224 1443 1502 1297 1299 1216 1168
0 0 0 0 0 0 0 0 0 0 0 0 0 0 0 0 0 0 0 0 0 0 0 0 0 0 0 36 198 357 622 809 880 1145 1141 1202 1322 1639 1545 2099 2077 2018 2049 2141 2194 2146 2088 2288 2459 2506 2179 1990 1877 1744 1728 1795 1836 1888 1744 1774 1699 1812 1823 1801 1827 1578 1418 1345 1175 1131 1219 1417 1279 1347 1311 1481 1389 1444 1624 1656 1534 1087 751 1006 1239 1132
0 0 0 0 0 0 0 0 0 0 0 0 0 0 0 0 0 0 0 0 0 0 0 0 0 0 0 20 357 514 945 911 997 1076 1051 1092 1221 1292 1253 1644 1876 2070 1996 1832 1863 1872 1826 2076 2374 2433 2159 2012 1783 1630 1398 1556 1618 1674 1607 1781 1723 1684 1693 1734 1769 1821 1731 1566 1471 1337 1295 1367 1686 1824 1693 1553 1596 1502 1496 1562 1543 1451 1411 1312 1232 1128
0 0 0 0 0 0 0 0 0 0 0 0 0 0 0 0 0 0 0 0 0 0 0 0 0 0 0 77 425 546 876 911 905 861 806 770 714 1201 1447 1468 1755 1937 1783 1587 1715 1700 1956 1929 1985 2036 2013 1920 1682 1505 1438 1418 1491 1642 1682 1739 1782 1786 1706 1848 1898 1742 1681 1482 1531 1575 1437 1383 1480 1707 1746 1618 1726 1701 1481 1634 1786 1805 1582 1471 1373 1292
0 0 0 0 0 0 0 0 0 0 0 0 0 0 0 0 0 0 0 0 0 0 0 0 0 0 0 218 276 437 704 778 911 793 617 589 895 992 1034 1243 1351 1388 1336 1411 1522 1482 1400 1503 1686 1926 1917 1892 1788 1602 1537 1470 1487 1532 1501 1492 1774 1615 1656 1805 2020 1700 1862 1758 1663 1757 1507 1457 1440 1424 1351 1158 1286 1402 1406 1511 1568 1560 1518 1470 1450 1227
0 0 0 0 0 0 0 0 0 0 0 0 0 0 0 0 0 0 0 0 0 0 0 0 0 0 0 130 219 308 483 807 848 730 523 388 802 823 819 1158 1259 1246 1203 1158 1213 1019 988 1200 1434 1642 1756 1839 1735 1592 1574 1570 1592 1605 1466 1328 1480 1665 1710 1751 1989 1946 1798 1801 1573 1608 1550 1401 1520 1400 1335 1414 1281 1390 1533 1508 1510 1471 1556 1501 1323 1211
0 0 0 0 0 0 0 0 0 0 0 0 0 0 0 0 0 0 0 0 0 0 0 0 0 0 2 2 46 307 642 832 805 682 461 435 588 709 825 958 771 851 767 1084 1009 1035 921 837 1183 1334 1481 1620 1616 1550 1585 1622 1640 1638 1544 1309 1114 1241 1392 1622 1716 1706 1722 1732 1584 1592 1540 1209 1263 1406 1410 1322 1248 1202 1269 1162 1330 1483 1670 1744 1553 1361
0 0 0 0 0 0 0 0 0 0 0 0 0 0 0 0 0 0 0 0 1 1 0 0 0 0 0 38 490 746 482 657 778 649 432 433 459 385 660 821 875 893 914 921 1065 880 720 951 1016 1139 1229 1239 1331 1423 1490 1568 1617 1582 1264 859 992 1098 1117 1263 1360 1473 1402 1291 1284 1268 1057 938 1044 1150 1205 1178 1215 1176 1152 1248 1368 1353 1180 1079 1330 1161
0 0 0 0 0 0 0 0 0 0 0 0 0 0 0 0 0 0 0 1 3 1 0 0 0 0 0 37 430 555 439 435 551 563 571 410 300 353 495 668 478 601 822 836 796 714 704 784 1125 1238 1208 1172 1228 1313 1420 1552 1461 1087 815 684 919 922 885 926 963 1095 1257 1245 1151 1159 1186 1038 1076 1209 1219 1194 1228 1244 1241 1218 1236 1198 1065 1021 1063 1160
0 0 0 0 0 0 0 0 0 0 0 0 0 0 0 0 0 0 0 0 3 1 1 0 0 6 571 547 547 569 629 434 528 551 540 405 450 453 352 358 449 551 666 619 576 604 607 644 814 918 958 1098 1151 1198 1163 1046 898 788 723 638 546 740 803 864 988 1027 976 1060 1170 1261 1258 1222 1222 1120 1228 1213 1115 1236 1493 1312 1240 1087 1046 1069 1131 1011
1 0 0 0 0 0 0 0 0 0 0 0 0 0 0 0 0 0 0 0 0 1 0 0 0 210 103 506 386 596 635 499 492 507 371 360 447 340 329 412 466 460 546 492 506 480 524 637 710 739 799 881 914 909 898 850 762 723 651 527 551 778 827 848 951 903 989 1091 1076 1116 1128 1202 1205 1245 1148 1000 978 1195 1378 1308 1038 994 1025 999 1031 1040
0 0 0 0 0 0 0 0 0 0 0 0 0 0 0 0 0 3 11 1 2 8 0 0 63 639 142 434 552 696 526 506 470 400 380 308 348 325 296 356 454 515 537 521 516 598 633 704 759 894 923 959 927 864 812 744 661 562 480 421 473 615 744 830 729 927 1010 1173 1193 1193 1208 1237 1166 1050 1080 1091 1061 983 1149 1352 1270 1090 1143 1007 937 978
0 1 0 0 0 0 0 0 0 0 0 0 0 0 2 0 0 2 0 16 1 1 2 9 165 288 482 406 507 602 534 409 369 325 344 362 386 441 456 384 443 567 574 676 707 677 603 652 793 817 831 788 722 667 572 507 412 347 256 342 480 495 608 517 758 935 1028 1010 1060 1034 1024 1064 1186 1107 1155 1210 1309 1254 1153 1223 1295 1100 1065 1085 1003 1020
0 6 0 0 0 0 0 0 0 0 0 0 0 0 0 0 9 5 16 15 14 12 4 3 284 263 376 282 358 549 540 574 418 360 423 475 490 488 525 546 634 670 645 534 478 477 495 531 558 498 459 457 410 139 99 17 17 19 80 138 294 330 393 540 742 862 875 967 1048 1045 1045 1011 1145 1163 1173 1213 1246 1384 1383 1313 1199 1136 1094 755 889 942
0 0 0 0 0 0 0 0 0 0 0 0 0 0 0 13 20 2 8 7 9 10 5 45 88 291 176 657 407 478 589 544 437 343 425 407 396 421 489 498 545 454 462 390 342 335 312 215 18 1 6 8 8 6 8 10 9 11 32 30 87 150 225 349 488 614 694 804 916 1019 1058 1062 1030 1018 1070 1066 1166 1275 1183 1310 1328 1232 1076 986 903 749
0 1 2 0 0 0 0 0 0 0 0 0 0 0 0 0 0 2 0 0 0 3 5 3 40 56 10 867 561 575 605 509 426 326 288 246 288 357 377 389 380 331 288 286 232 40 1 2 3 3 5 8 9 7 7 10 9 7 8 9 12 38 89 165 254 407 467 534 724 979 1026 983 1018 1008 1001 936 962 1024 693 742 1074 1044 1048 1103 954 680
0 48 1 0 0 0 0 0 0 0 0 0 0 0 0 0 0 0 0 0 0 1 1 3 0 44 419 884 773 625 534 567 457 267 288 292 324 331 313 261 218 188 110 4 3 1 1 2 3 5 6 6 7 8 7 5 7 6 6 7 6 8 16 19 46 124 399 513 552 774 1010 992 1174 1331 1301 1064 989 939 696 763 891 867 963 852 918 656
0 0 0 0 0 0 0 0 0 0 0 0 0 0 0 0 0 0 2 0 0 0 0 0 0 97 571 737 723 631 533 480 319 235 262 354 344 348 298 237 189 161 2 1 1 1 1 2 4 5 8 7 6 7 6 5 4 4 5 5 4 4 4 4 4 44 112 367 470 520 766 881 966 1148 977 1060 1081 861 768 686 818 858 685 739 857 799
163 0 2 2 0 0 0 3 0 17 0 0 0 0 0 0 0 6 2 0 0 0 0 3 8 164 499 689 676 619 564 406 276 208 317 385 384 344 265 207 70 3 1 2 2 2 0 2 3 5 4 0 2 6 6 4 3 5 6 4 3 3 4 4 5 6 77 191 315 492 507 671 781 776 793 872 901 760 570 900 954 762 688 691 780 926
15 14 4 16 2 15 0 0 16 3 0 0 0 0 0 0 0 0 0 0 0 7 0 0 0 155 412 609 742 714 454 346 223 165 392 393 369 311 261 138 0 3 4 3 4 0 0 0 0 0 0 0 2 5 4 3 3 3 3 2 3 3 3 2 3 4 23 127 269 392 481 593 390 472 600 660 858 968 485 988 927 777 652 716 961 1024
0 2 40 2 1 45 40 11 9 0 0 0 1 0 0 0 0 0 0 0 0 0 0 0 0 449 636 748 626 522 398 277 212 264 302 371 344 307 239 2 2 3 2 3 0 0 0 0 0 0 0 0 3 5 5 2 1 2 4 3 2 2 2 2 2 3 4 20 116 232 342 394 424 516 518 644 584 810 1024 1067 1040 671 609 615 982 876
0 39 43 7 4 3 8 0 0 0 0 0 0 0 2 0 0 0 0 0 0 3 0 0 58 464 696 643 469 495 363 246 209 217 240 249 303 302 227 1 0 2 2 2 0 0 0 0 0 0 0 0 3 0 0 0 2 2 4 4 4 3 2 3 4 4 5 6 16 75 115 327 347 577 528 549 551 566 854 1141 940 702 564 616 840 662
222 143 332 452 14 45 3 85 337 0 0 0 13 0 0 0 0 0 0 0 0 20 0 0 298 546 447 581 336 327 204 163 45 87 154 178 186 216 220 1 1 0 1 0 0 0 0 0 0 0 0 0 0 0 0 0 2 3 4 3 0 0 2 4 5 4 5 5 5 4 4 41 370 445 594 499 484 674 568 638 756 646 791 741 823 851
91 82 380 654 151 179 159 511 491 149 21 0 2 0 10 48 56 21 0 0 0 0 0 798 805 631 508 596 371 286 232 61 2 13 21 2 0 179 226 7 0 0 1 0 0 0 0 0 0 0 1 1 0 0 1 0 0 2 0 0 0 1 2 4 4 3 0 2 18 70 94 28 342 448 537 567 380 412 529 502 436 570 508 581 573 952
26 46 246 410 328 252 233 253 341 520 487 386 225 123 61 91 148 16 0 117 0 0 0 634 696 750 644 595 311 254 214 148 2 0 84 0 125 206 226 80 0 0 0 0 0 1 0 0 1 0 0 0 0 0 0 0 0 0 1 0 0 2 2 4 3 0 0 8 56 107 127 126 336 375 331 446 395 334 328 398 417 388 412 477 538 408
195 359 246 657 517 368 228 247 164 234 277 253 241 246 147 158 644 722 743 965 508 319 320 870 861 776 543 465 330 236 192 160 80 6 4 115 192 241 180 7 0 0 0 0 0 0 0 1 1 0 0 0 0 1 0 0 0 0 0 0 0 2 2 2 4 2 1 0 5 88 147 232 243 132 165 252 141 149 215 162 150 240 267 298 378 432
377 111 527 590 565 360 226 186 218 217 284 260 201 260 194 257 288 196 322 612 748 568 937 1120 530 487 393 377 311 276 260 190 108 0 0 50 101 96 32 0 0 0 1 0 0 0 0 1 0 0 2 0 0 0 0 0 0 1 0 0 1 2 2 2 2 3 1 3 3 2 3 5 6 8 41 64 44 31 21 115 166 252 260 145 236 374
631 233 417 769 290 276 241 360 314 342 309 284 183 163 323 355 382 472 534 606 1276 1117 1234 936 543 103 275 263 314 320 316 278 156 59 73 81 33 0 0 0 0 1 1 1 0 0 2 0 0 0 0 0 0 0 0 0 0 0 0 2 1 1 1 2 1 2 1 1 2 3 5 4 2 2 3 4 4 4 5 5 100 193 242 85 241 301
298 248 266 291 151 284 120 319 406 338 218 147 76 11 12 128 163 143 216 360 763 1048 819 472 552 73 145 198 292 311 352 293 191 74 86 20 19 3 0 0 1 0 1 2 0 0 0 0 0 0 0 0 2 2 0 0 0 0 0 0 2 1 2 1 3 2 1 2 2 2 5 2 1 1 1 2 2 2 2 2 0 168 255 236 237 254
401 295 201 169 169 262 61 196 272 324 46 54 1 5 8 61 236 310 52 100 470 574 322 342 364 122 38 148 330 321 363 300 191 93 51 40 18 0 0 0 0 0 0 0 0 0 0 0 0 0 0 27 16 0 0 0 0 0 0 0 0 0 0 0 1 2 2 1 1 2 2 3 1 1 1 1 1 0 1 2 2 78 73 44 158 156
300 244 240 367 364 211 139 102 124 56 17 23 2 2 3 5 4 3 2 15 68 140 111 0 81 1 99 154 315 341 364 262 210 161 67 18 2 0 3 0 0 0 0 0 1 0 0 0 0 0 0 18 3 0 0 0 0 0 0 0 0 0 0 0 0 0 0 0 0 2 3 2 1 1 1 0 0 0 0 5 4 10 4 4 16 91
323 235 246 266 293 218 137 93 24 0 28 5 7 7 8 9 15 17 24 22 21 21 11 16 10 8 68 192 324 371 350 261 204 146 93 73 10 0 0 0 0 0 0 0 0 0 0 0 0 0 0 1 0 0 0 0 0 0 0 0 0 0 0 0 0 0 0 0 0 1 2 2 1 1 0 0 0 0 0 3 6 14 14 16 2 10
329 265 176 266 244 104 107 71 96 46 18 9 11 12 13 37 32 82 54 45 42 44 38 39 30 21 40 217 325 336 339 302 229 148 116 73 15 0 0 0 0 0 0 0 0 0 0 0 0 0 0 0 0 0 0 0 0 0 0 0 0 0 0 0 0 0 0 0 0 1 1 1 0 0 1 1 1 2 2 2 1 1 22 12 1 16
546 135 225 212 76 148 158 69 76 33 108 82 15 18 10 13 14 21 26 59 33 55 54 52 46 34 100 198 316 360 184 165 222 166 87 47 3 4 4 0 0 0 0 3 0 0 0 0 2 0 0 0 0 0 0 0 0 0 0 0 0 0 0 0 0 0 0 0 0 0 1 1 0 0 0 1 1 0 1 1 1 1 1 4 9 14
290 390 399 178 105 96 140 111 83 71 25 25 10 12 17 15 14 41 142 137 56 42 46 41 44 37 29 130 240 333 218 244 222 143 49 13 7 6 10 8 1 1 0 1 0 0 0 0 0 0 0 0 0 0 0 0 0 0 0 0 0 0 0 0 0 0 1 1 0 0 0 1 1 0 0 0 1 0 0 1 1 1 0 1 2 2
243 134 74 180 195 123 130 115 264 66 112 13 8 1 9 4 38 74 96 136 53 34 54 44 42 40 32 24 113 97 161 98 54 48 59 47 13 10 17 16 7 0 0 0 0 0 0 0 1 0 0 0 0 0 0 0 0 0 0 0 0 0 0 0 0 0 0 1 0 0 0 0 1 0 0 0 0 0 0 0 0 0 0 0 1 2
40 95 100 75 134 92 108 103 81 23 0 4 4 1 4 20 34 28 66 123 30 30 38 35 31 26 25 59 74 91 54 54 74 78 72 38 6 7 4 0 0 0 0 0 0 0 0 0 0 0 2 4 1 0 0 0 0 0 0 0 0 0 0 0 0 0 0 2 1 0 1 0 0 0 0 0 0 0 2 1 0 0 2 2 1 4
39 79 78 74 101 91 123 82 34 25 1 7 0 0 11 16 34 35 43 33 41 15 12 15 14 13 26 49 48 78 124 104 72 97 67 27 1 0 0 0 0 0 0 2 5 6 4 0 0 0 0 2 0 0 0 0 0 0 0 0 0 0 0 0 0 0 0 0 0 0 0 0 0 0 0 0 0 0 0 0 0 0 0 0 3 3
11 36 68 33 12 6 25 22 19 43 0 0 2 0 17 48 16 18 14 16 6 6 3 1 1 1 16 49 23 84 133 86 42 43 36 27 18 6 0 0 0 0 0 0 0 0 0 0 0 0 0 1 0 0 0 0 0 0 0 0 0 0 0 0 0 0 0 0 0 0 0 0 0 0 0 0 0 0 0 0 0 0 0 0 1 2
0 19 42 0 0 11 14 10 17 0 0 0 3 0 1 0 8 4 1 4 1 2 2 1 6 1 18 48 64 68 43 42 41 19 5 6 2 2 0 0 0 0 0 2 0 0 1 0 1 1 0 0 0 0 0 0 0 0 0 0 0 0 0 0 0 0 0 0 0 0 0 0 0 0 0 0 0 0 0 2 8 4 0 0 0 0
0 0 0 3 0 2 0 2 0 0 1 0 3 1 1 1 3 3 1 2 3 1 1 1 3 7 16 21 27 26 24 29 20 4 3 5 2 1 1 2 1 4 3 0 0 0 0 2 2 1 0 0 0 0 0 0 0 0 0 0 0 0 0 0 0 0 0 0 0 0 0 0 0 0 0 0 0 0 2 3 4 8 4 2 0 0
0 0 0 0 1 1 1 5 4 2 1 0 0 1 0 1 2 4 3 2 2 0 1 0 0 3 2 3 2 0 0 3 8 8 7 8 7 7 5 4 3 0 0 1 0 0 0 1 0 0 0 0 0 0 0 0 0 0 0 0 0 0 0 0 0 0 0 0 0 0 0 0 0 0 0 0 0 0 0 0 1 1 0 0 1 1
0 0 0 0 0 0 0 2 2 0 0 1 0 0 2 0 1 3 2 2 1 0 0 2 3 4 4 10 10 9 12 8 11 18 17 14 11 9 6 4 7 3 0 0 0 0 0 0 0 0 0 0 0 0 0 0 0 0 0 0 0 0 0 0 0 0 0 0 0 0 0 0 0 0 0 0 0 0 0 0 0 0 0 0 9 4
0 0 0 0 0 0 0 0 1 0 0 1 1 0 0 0 0 1 1 1 1 1 0 0 0 5 4 7 12 14 11 14 13 15 13 13 11 7 4 3 8 7 2 2 2 0 2 2 0 1 0 0 0 0 0 0 0 0 0 0 0 0 0 0 0 0 0 0 0 0 0 0 0 0 0 0 0 0 0 0 0 0 0 0 1 5
0 0 0 0 0 0 3 4 0 0 0 1 0 2 2 0 1 1 0 1 0 0 0 0 0 0 0 0 1 3 4 4 5 8 10 4 3 2 5 5 6 4 1 4 1 0 4 4 4 7 3 0 0 0 0 0 0 0 0 0 0 0 0 0 0 0 0 0 0 0 0 0 0 0 0 0 0 0 0 0 0 0 0 0 0 0
0 0 0 0 0 0 0 0 2 1 1 0 0 2 6 4 2 2 3 0 0 1 1 0 0 0 0 3 1 1 1 0 0 0 0 0 2 0 0 1 0 2 8 5 0 0 4 1 5 5 2 0 0 0 0 0 0 0 0 0 0 0 0 0 0 0 0 0 0 0 0 0 0 0 0 0 0 0 0 0 0 0 0 0 0 0
0 0 0 0 0 0 0 0 0 0 1 0 1 2 5 12 7 0 0 0 1 0 1 0 0 0 1 2 3 2 2 0 1 0 0 2 2 2 2 7 6 4 1 0 2 4 3 1 0 0 0 0 0 0 0 0 0 0 0 0 0 0 0 0 0 0 0 0 0 0 0 0 0 0 0 0 0 0 0 0 0 0 0 0 0 0
Wind_Speed
nan nan nan nan nan nan nan nan nan nan nan nan nan nan nan nan nan nan nan nan nan nan nan nan nan nan nan nan nan 26 22 19 18 19 20 24 26 28 29 30 30 30 29 29 30 29 26 24 23 23 23 23 24 23 22 21 20 20 22 23 23 23 22 22 23 23 23 23 23 22 21 20 21 21 21 21 20 20 21 21 20 20 21 22 24 26
nan nan nan nan nan nan nan nan nan nan nan nan nan nan nan nan nan nan nan nan nan nan nan nan nan nan nan nan nan 25 22 19 19 19 20 22 26 28 30 29 31 28 27 28 28 28 26 24 24 22 23 23 23 23 21 20 20 19 20 22 23 23 20 20 20 20 20 20 22 23 24 22 22 23 24 23 22 21 22 22 23 22 22 22 24 26
nan nan nan nan nan nan nan nan nan nan nan nan nan nan nan nan nan nan nan nan nan nan nan nan nan nan nan nan nan 24 23 25 25 26 24 22 21 23 27 29 29 27 28 29 27 27 27 25 23 23 23 23 23 23 21 20 20 20 19 21 22 21 19 20 21 19 19 21 21 21 25 26 25 24 24 24 23 23 23 22 23 23 23 23 23 25
nan nan nan nan nan nan nan nan nan nan nan nan nan nan nan nan nan nan nan nan nan nan nan nan nan nan nan nan 30 29 26 24 25 25 26 23 20 20 25 25 24 25 26 27 27 26 24 24 23 24 25 25 24 23 21 20 18 19 19 21 21 19 18 18 20 20 20 21 22 23 24 26 26 25 24 24 24 24 23 21 21 21 22 21 22 23
nan nan nan nan nan nan nan nan nan nan nan nan nan nan nan nan nan nan nan nan nan nan nan nan nan nan nan nan nan 28 25 25 25 25 24 25 24 22 24 21 21 22 23 23 23 22 21 23 23 24 25 25 26 25 23 21 19 19 19 19 19 19 19 19 20 20 21 22 23 24 25 26 27 26 24 25 25 25 25 22 19 18 18 19 19 21
nan nan nan nan nan nan nan nan nan nan nan nan nan nan nan nan nan nan nan nan nan nan nan nan nan nan nan nan 27 27 24 27 26 25 26 26 26 22 22 25 23 23 23 22 23 22 21 22 23 23 25 25 25 25 23 21 19 19 18 18 20 19 18 16 17 19 20 21 21 23 25 26 27 27 27 27 26 27 26 23 21 19 17 16 18 19
nan nan nan nan nan nan nan nan nan nan nan nan nan nan nan nan nan nan nan nan nan nan nan nan nan nan nan nan 27 25 25 28 27 27 28 29 29 27 27 26 26 28 27 23 22 22 21 20 20 20 22 23 25 24 23 21 19 18 17 18 19 19 18 18 19 19 19 18 21 22 21 22 24 25 27 28 28 26 26 25 22 19 18 17 17 18
nan nan nan nan nan nan nan nan nan nan nan nan nan nan nan nan nan nan nan nan nan nan nan nan nan nan nan nan 29 24 25 29 29 29 30 32 32 32 31 27 25 26 25 24 24 21 21 21 21 21 24 26 26 25 23 22 19 19 18 18 19 20 19 19 18 18 19 19 20 21 21 21 21 22 23 25 26 26 26 24 23 22 21 18 17 18
nan nan nan nan nan nan nan nan nan nan nan nan nan nan nan nan nan nan nan nan nan nan nan nan nan nan nan 29 26 22 26 28 31 31 31 32 33 33 32 31 30 30 28 25 24 26 25 24 22 22 23 25 25 23 21 20 19 18 19 18 18 18 18 19 20 19 19 20 19 20 22 21 21 21 22 22 24 25 26 23 22 20 20 20 18 17
nan nan nan nan nan nan nan nan nan nan nan nan nan nan nan nan nan nan nan nan nan nan nan nan nan nan nan 26 24 22 28 31 32 32 32 32 33 32 30 29 29 27 27 27 26 25 25 25 24 22 23 24 24 22 20 20 20 20 19 19 19 18 18 19 19 20 21 22 23 23 23 22 21 23 23 22 22 23 24 23 21 20 20 21 21 19
nan nan nan nan nan nan nan nan nan nan nan nan nan nan nan nan nan nan nan nan nan nan nan nan nan nan nan nan nan 25 33 35 32 33 33 32 31 32 31 29 28 26 26 26 27 27 27 27 25 23 23 23 23 22 22 22 22 21 20 20 19 20 19 20 21 22 22 22 24 24 25 23 23 22 22 21 20 21 21 20 20 20 21 22 22 22
nan nan nan nan nan nan nan nan nan nan nan nan nan nan nan nan nan nan nan nan nan nan nan nan nan nan nan nan 34 39 36 35 34 34 33 31 29 29 28 27 27 27 26 26 27 27 28 28 28 25 23 22 22 23 22 22 22 21 21 21 21 22 22 21 21 21 22 24 26 27 27 27 26 26 25 23 21 22 21 20 20 21 21 21 22 23
nan nan nan nan nan nan nan nan nan nan nan nan nan nan nan nan nan nan nan nan nan nan nan nan nan nan nan nan 34 36 37 36 35 34 33 31 29 27 28 28 28 27 27 27 27 27 28 29 28 25 24 23 23 23 23 23 21 21 21 21 22 22 22 22 23 22 22 24 25 27 29 28 28 28 28 27 24 24 24 22 20 21 22 22 21 22
nan nan nan nan nan nan nan nan nan nan nan nan nan nan nan nan nan nan nan nan nan nan nan nan nan nan 40 40 37 39 39 36 36 38 35 32 30 29 30 30 30 30 29 28 27 28 28 28 26 25 23 22 22 22 22 22 22 22 22 23 22 23 24 24 25 25 25 26 27 28 28 28 29 29 30 29 27 27 26 25 23 22 23 24 22 20
nan nan nan nan nan nan nan nan nan nan nan nan nan nan nan nan nan nan nan nan nan nan nan nan nan 32 30 36 36 39 38 38 38 37 36 34 33 32 31 31 30 29 28 26 28 29 28 27 27 25 23 22 21 22 22 22 22 22 23 23 24 24 25 25 26 26 27 28 29 29 29 28 28 29 30 30 30 30 27 25 24 24 26 25 22 19
nan nan nan nan nan nan nan nan nan nan nan nan nan nan nan nan nan nan nan nan nan nan nan nan nan 44 39 40 41 38 38 39 37 38 38 36 33 32 31 29 27 27 27 27 29 29 29 27 26 24 23 22 22 23 22 21 21 21 22 23 24 24 25 25 26 27 28 29 30 29 28 28 27 28 28 28 31 30 29 26 26 25 27 27 24 20
nan nan nan nan nan nan nan nan nan nan nan nan nan nan nan nan nan nan nan nan nan nan nan nan 40 40 40 36 37 37 36 37 37 39 39 37 35 34 32 29 28 27 28 29 29 28 28 27 26 24 23 22 22 22 22 22 22 22 22 23 24 26 26 26 27 28 29 29 28 28 27 27 27 28 27 27 27 29 29 28 27 26 28 29 24 21
nan nan nan nan nan nan nan nan nan nan nan nan nan nan nan nan nan nan nan nan nan nan nan nan 34 35 32 36 34 38 36 36 39 39 39 37 36 36 33 30 28 29 30 30 29 27 25 24 24 24 23 23 22 21 nan nan nan nan nan 22 23 25 25 26 26 27 28 27 25 25 26 26 27 27 27 25 25 28 28 27 27 27 28 27 25 22
nan nan nan nan nan nan nan nan nan nan nan nan nan nan nan nan nan nan nan nan nan nan nan nan nan 34 30 38 32 31 34 37 38 39 38 39 38 37 34 33 31 29 29 30 29 27 25 24 nan nan nan nan nan nan nan nan nan nan nan nan nan 22 23 24 26 27 27 25 24 24 25 26 27 28 27 25 24 26 25 23 26 28 26 25 25 26
nan nan nan nan nan nan nan nan nan nan nan nan nan nan nan nan nan nan nan nan nan nan nan nan nan nan nan 36 28 30 32 36 36 37 38 39 37 36 33 32 31 31 31 30 28 nan nan nan nan nan nan nan nan nan nan nan nan nan nan nan nan nan nan 24 24 26 26 25 22 23 24 26 26 26 27 26 23 22 23 22 24 26 24 23 24 24
nan nan nan nan nan nan nan nan nan nan nan nan nan nan nan nan nan nan nan nan nan nan nan nan nan nan 39 39 33 32 33 36 36 38 39 39 38 37 35 34 32 31 30 nan nan nan nan nan nan nan nan nan nan nan nan nan nan nan nan nan nan nan nan nan nan 25 25 23 22 21 21 23 24 24 25 25 23 21 21 22 23 23 22 22 22 22
nan nan nan nan nan nan nan nan nan nan nan nan nan nan nan nan nan nan nan nan nan nan nan nan nan nan 43 37 36 36 36 38 38 39 40 40 38 36 35 34 33 32 nan nan nan nan nan nan nan nan nan nan nan nan nan nan nan nan nan nan nan nan nan nan nan nan 22 20 20 20 20 20 21 22 22 22 23 23 24 24 24 22 21 20 20 20
30 nan nan nan nan nan nan nan nan nan nan nan nan nan nan nan nan nan nan nan nan nan nan nan nan 35 36 33 36 37 37 39 39 40 40 39 37 37 36 36 nan nan nan nan nan nan nan nan nan nan nan nan nan nan nan nan nan nan nan nan nan nan nan nan nan nan nan 18 18 18 20 20 20 19 15 16 21 22 22 24 23 22 19 19 20 20
nan nan nan nan nan nan nan nan nan nan nan nan nan nan nan nan nan nan nan nan nan nan nan nan nan 33 30 30 38 40 39 38 37 39 40 37 37 38 38 37 nan nan nan nan nan nan nan nan nan nan nan nan nan nan nan nan nan nan nan nan nan nan nan nan nan nan nan 16 17 18 18 19 20 18 15 12 16 15 16 19 19 18 16 16 20 21
nan nan nan nan nan nan nan nan nan nan nan nan nan nan nan nan nan nan nan nan nan nan nan nan nan 33 32 32 38 38 37 38 39 38 38 39 38 38 38 nan nan nan nan nan nan nan nan nan nan nan nan nan nan nan nan nan nan nan nan nan nan nan nan nan nan nan nan nan 16 17 19 18 18 19 16 13 11 10 14 15 15 15 15 16 18 20
nan nan nan nan nan nan nan nan nan nan nan nan nan nan nan nan nan nan nan nan nan nan nan nan nan 40 37 37 38 38 38 40 38 38 38 38 39 38 36 nan nan nan nan nan nan nan nan nan nan nan nan nan nan nan nan nan nan nan nan nan nan nan nan nan nan nan nan nan nan nan 18 19 19 19 19 16 12 5 12 15 16 17 17 16 17 18
32 34 34 31 nan nan nan nan 38 nan nan nan nan nan nan nan nan nan nan nan nan nan nan nan 36 36 35 36 36 37 37 38 nan nan 38 38 37 36 35 nan nan nan nan nan nan nan nan nan nan nan nan nan nan nan nan nan nan nan nan nan nan nan nan nan nan nan nan nan nan nan nan nan 18 18 19 17 13 8 7 14 18 19 18 18 17 18
nan nan 35 33 35 35 34 32 35 26 nan nan nan nan nan nan nan nan nan nan nan nan nan 35 37 33 27 31 30 32 33 nan nan nan nan nan nan 34 32 nan nan nan nan nan nan nan nan nan nan nan nan nan nan nan nan nan nan nan nan nan nan nan nan nan nan nan nan nan nan nan nan nan 16 18 19 17 15 11 7 11 16 18 18 17 17 19
nan nan 33 30 34 36 36 34 32 35 35 29 25 27 nan nan 27 nan nan 27 nan nan nan 28 26 27 28 28 29 29 28 29 nan nan nan nan 32 31 29 nan nan nan nan nan nan nan nan nan nan nan nan nan nan nan nan nan nan nan nan nan nan nan nan nan nan nan nan nan nan 16 16 16 16 16 19 18 15 14 11 11 15 17 18 18 18 23
27 31 29 29 30 33 35 34 31 31 31 33 33 33 32 28 33 30 32 33 27 26 28 30 33 37 32 33 29 29 28 30 nan nan nan 29 28 28 28 nan nan nan nan nan nan nan nan nan nan nan nan nan nan nan nan nan nan nan nan nan nan nan nan nan nan nan nan nan nan nan 17 17 17 16 18 19 17 15 15 15 15 16 16 20 22 26
28 29 26 27 30 34 33 34 34 31 30 34 35 34 32 32 32 33 32 31 29 30 32 36 35 31 32 33 33 31 31 29 28 nan nan nan 27 nan nan nan nan nan nan nan nan nan nan nan nan nan nan nan nan nan nan nan nan nan nan nan nan nan nan nan nan nan nan nan nan nan nan nan nan nan nan nan nan nan nan 18 19 19 21 22 24 26
30 32 28 28 28 30 33 32 32 32 33 36 37 38 36 30 31 32 31 32 29 27 30 31 28 24 23 28 30 30 30 29 28 nan nan nan nan nan nan nan nan nan nan nan nan nan nan nan nan nan nan nan nan nan nan nan nan nan nan nan nan nan nan nan nan nan nan nan nan nan nan nan nan nan nan nan nan nan nan nan 21 21 24 nan 24 24
28 27 28 27 28 30 29 28 31 30 33 33 nan nan nan 34 35 34 35 34 36 27 27 21 23 nan 26 28 32 30 31 30 28 nan nan nan nan nan nan nan nan nan nan nan nan nan nan nan nan nan nan nan nan nan nan nan nan nan nan nan nan nan nan nan nan nan nan nan nan nan nan nan nan nan nan nan nan nan nan nan nan 19 22 26 25 24
25 23 26 26 29 31 nan 28 28 29 nan nan nan nan nan nan 31 32 nan 35 38 34 29 30 30 29 nan 27 31 29 31 30 30 nan nan nan nan nan nan nan nan nan nan nan nan nan nan nan nan nan nan nan nan nan nan nan nan nan nan nan nan nan nan nan nan nan nan nan nan nan nan nan nan nan nan nan nan nan nan nan nan nan nan nan 24 24
21 24 29 30 30 29 29 28 29 nan nan nan nan nan nan nan nan nan nan nan nan 32 32 nan nan nan nan 27 31 33 34 35 34 33 nan nan nan nan nan nan nan nan nan nan nan nan nan nan nan nan nan nan nan nan nan nan nan nan nan nan nan nan nan nan nan nan nan nan nan nan nan nan nan nan nan nan nan nan nan nan nan nan nan nan nan nan
22 24 30 32 32 33 30 nan nan nan nan nan nan nan nan nan nan nan nan nan nan nan nan nan nan nan nan 28 30 31 35 37 38 36 nan nan nan nan nan nan nan nan nan nan nan nan nan nan nan nan nan nan nan nan nan nan nan nan nan nan nan nan nan nan nan nan nan nan nan nan nan nan nan nan nan nan nan nan nan nan nan nan nan nan nan nan
17 23 26 30 29 29 31 nan nan nan nan nan nan nan nan nan nan nan nan nan nan nan nan nan nan nan nan 29 30 30 31 33 36 34 32 nan nan nan nan nan nan nan nan nan nan nan nan nan nan nan nan nan nan nan nan nan nan nan nan nan nan nan nan nan nan nan nan nan nan nan nan nan nan nan nan nan nan nan nan nan nan nan nan nan nan nan
24 22 24 25 nan 28 28 nan nan nan 27 nan nan nan nan nan nan nan nan nan nan nan nan nan nan nan nan 32 31 28 25 31 31 28 nan nan nan nan nan nan nan nan nan nan nan nan nan nan nan nan nan nan nan nan nan nan nan nan nan nan nan nan nan nan nan nan nan nan nan nan nan nan nan nan nan nan nan nan nan nan nan nan nan nan nan nan
24 24 23 24 25 nan 23 25 nan nan nan nan nan nan nan nan nan nan 24 29 nan nan nan nan nan nan nan 31 28 24 21 24 26 24 nan nan nan nan nan nan nan nan nan nan nan nan nan nan nan nan nan nan nan nan nan nan nan nan nan nan nan nan nan nan nan nan nan nan nan nan nan nan nan nan nan nan nan nan nan nan nan nan nan nan nan nan
24 22 nan 21 20 20 22 22 26 nan 30 nan nan nan nan nan nan nan nan 28 nan nan nan nan nan nan nan nan 27 nan 22 nan nan nan nan nan nan nan nan nan nan nan nan nan nan nan nan nan nan nan nan nan nan nan nan nan nan nan nan nan nan nan nan nan nan nan nan nan nan nan nan nan nan nan nan nan nan nan nan nan nan nan nan nan nan nan
nan nan 21 nan 18 nan 20 27 nan nan nan nan nan nan nan nan nan nan nan 35 nan nan nan nan nan nan nan nan nan nan nan nan nan nan nan nan nan nan nan nan nan nan nan nan nan nan nan nan nan nan nan nan nan nan nan nan nan nan nan nan nan nan nan nan nan nan nan nan nan nan nan nan nan nan nan nan nan nan nan nan nan nan nan nan nan nan
nan nan nan nan 21 nan 21 nan nan nan nan nan nan nan nan nan nan nan nan nan nan nan nan nan nan nan nan nan nan nan 37 39 nan nan nan nan nan nan nan nan nan nan nan nan nan nan nan nan nan nan nan nan nan nan nan nan nan nan nan nan nan nan nan nan nan nan nan nan nan nan nan nan nan nan nan nan nan nan nan nan nan nan nan nan nan nan
nan nan nan nan nan nan nan nan nan nan nan nan nan nan nan nan nan nan nan nan nan nan nan nan nan nan nan nan nan nan 38 nan nan nan nan nan nan nan nan nan nan nan nan nan nan nan nan nan nan nan nan nan nan nan nan nan nan nan nan nan nan nan nan nan nan nan nan nan nan nan nan nan nan nan nan nan nan nan nan nan nan nan nan nan nan nan
nan nan nan nan nan nan nan nan nan nan nan nan nan nan nan nan nan nan nan nan nan nan nan nan nan nan nan nan nan nan nan nan nan nan nan nan nan nan nan nan nan nan nan nan nan nan nan nan nan nan nan nan nan nan nan nan nan nan nan nan nan nan nan nan nan nan nan nan nan nan nan nan nan nan nan nan nan nan nan nan nan nan nan nan nan nan
nan nan nan nan nan nan nan nan nan nan nan nan nan nan nan nan nan nan nan nan nan nan nan nan nan nan nan nan nan nan nan nan nan nan nan nan nan nan nan nan nan nan nan nan nan nan nan nan nan nan nan nan nan nan nan nan nan nan nan nan nan nan nan nan nan nan nan nan nan nan nan nan nan nan nan nan nan nan nan nan nan nan nan nan nan nan
nan nan nan nan nan nan nan nan nan nan nan nan nan nan nan nan nan nan nan nan nan nan nan nan nan nan nan nan nan nan nan nan nan nan nan nan nan nan nan nan nan nan nan nan nan nan nan nan nan nan nan nan nan nan nan nan nan nan nan nan nan nan nan nan nan nan nan nan nan nan nan nan nan nan nan nan nan nan nan nan nan nan nan nan nan nan
nan nan nan nan nan nan nan nan nan nan nan nan nan nan nan nan nan nan nan nan nan nan nan nan nan nan nan nan nan nan nan nan nan nan nan nan nan nan nan nan nan nan nan nan nan nan nan nan nan nan nan nan nan nan nan nan nan nan nan nan nan nan nan nan nan nan nan nan nan nan nan nan nan nan nan nan nan nan nan nan nan nan nan nan nan nan
nan nan nan nan nan nan nan nan nan nan nan nan nan nan nan nan nan nan nan nan nan nan nan nan nan nan nan nan nan nan nan nan nan nan nan nan nan nan nan nan nan nan nan nan nan nan nan nan nan nan nan nan nan nan nan nan nan nan nan nan nan nan nan nan nan nan nan nan nan nan nan nan nan nan nan nan nan nan nan nan nan nan nan nan nan nan
nan nan nan nan nan nan nan nan nan nan nan nan nan nan nan nan nan nan nan nan nan nan nan nan nan nan nan nan nan nan nan nan nan nan nan nan nan nan nan nan nan nan nan nan nan nan nan nan nan nan nan nan nan nan nan nan nan nan nan nan nan nan nan nan nan nan nan nan nan nan nan nan nan nan nan nan nan nan nan nan nan nan nan nan nan nan
nan nan nan nan nan nan nan nan nan nan nan nan nan nan nan nan nan nan nan nan nan nan nan nan nan nan nan nan nan nan nan nan nan nan nan nan nan nan nan nan nan nan nan nan nan nan nan nan nan nan nan nan nan nan nan nan nan nan nan nan nan nan nan nan nan nan nan nan nan nan nan nan nan nan nan nan nan nan nan nan nan nan nan nan nan nan
nan nan nan nan nan nan nan nan nan nan nan nan nan nan nan nan nan nan nan nan nan nan nan nan nan nan nan nan nan nan nan nan nan nan nan nan nan nan nan nan nan nan nan nan nan nan nan nan nan nan nan nan nan nan nan nan nan nan nan nan nan nan nan nan nan nan nan nan nan nan nan nan nan nan nan nan nan nan nan nan nan nan nan nan nan nan
Wind_Direction
nan nan nan nan nan nan nan nan nan nan nan nan nan nan nan nan nan nan nan nan nan nan nan nan nan nan nan nan nan 239 240 239 240 246 246 248 252 252 253 253 253 252 251 250 250 251 256 261 264 267 272 274 276 279 282 286 289 290 289 288 288 286 289 287 290 291 289 286 284 279 275 276 278 283 287 289 289 286 288 294 300 304 302 301 299 296
nan nan nan nan nan nan nan nan nan nan nan nan nan nan nan nan nan nan nan nan nan nan nan nan nan nan nan nan nan 234 234 242 242 240 239 243 248 249 252 254 254 251 253 255 256 258 259 262 266 269 270 273 275 275 280 285 284 284 285 286 282 278 278 284 285 287 290 289 286 283 281 277 276 278 284 287 285 284 284 289 293 295 297 299 298 296
nan nan nan nan nan nan nan nan nan nan nan nan nan nan nan nan nan nan nan nan nan nan nan nan nan nan nan nan nan 229 235 234 231 230 231 235 246 255 256 256 259 260 259 255 255 258 260 264 267 268 269 268 268 273 275 274 281 282 285 284 284 285 286 287 290 288 287 280 276 277 276 276 273 273 277 279 279 277 280 287 295 298 298 299 298 299
nan nan nan nan nan nan nan nan nan nan nan nan nan nan nan nan nan nan nan nan nan nan nan nan nan nan nan nan 232 225 230 232 231 237 237 238 246 251 258 260 262 264 262 266 266 266 267 267 268 269 270 269 270 270 274 274 272 275 277 279 280 285 289 290 290 286 286 289 286 285 280 279 281 276 273 277 280 279 279 285 295 297 294 293 294 295
nan nan nan nan nan nan nan nan nan nan nan nan nan nan nan nan nan nan nan nan nan nan nan nan nan nan nan nan nan 229 230 230 230 236 238 242 243 245 251 254 258 261 263 265 268 270 272 272 270 269 269 270 269 268 268 270 271 273 273 274 282 288 291 296 298 301 301 297 295 287 282 283 286 288 286 282 282 283 283 281 286 292 288 287 288 291
nan nan nan nan nan nan nan nan nan nan nan nan nan nan nan nan nan nan nan nan nan nan nan nan nan nan nan nan 230 232 232 230 231 233 233 235 241 250 257 250 249 252 252 263 270 271 269 270 270 268 268 267 269 270 268 269 272 273 277 281 287 295 303 304 303 307 305 305 303 299 294 292 291 291 292 290 287 287 287 285 285 288 290 283 282 286
nan nan nan nan nan nan nan nan nan nan nan nan nan nan nan nan nan nan nan nan nan nan nan nan nan nan nan nan 234 230 231 234 231 229 230 231 234 241 248 246 250 255 256 260 264 266 267 268 271 268 264 265 266 267 270 273 272 276 282 285 291 301 308 312 312 312 310 306 308 307 303 299 294 291 291 288 287 288 288 289 289 288 288 285 284 284
nan nan nan nan nan nan nan nan nan nan nan nan nan nan nan nan nan nan nan nan nan nan nan nan nan nan nan nan 234 228 230 232 231 229 228 228 230 235 240 246 254 260 264 263 262 265 263 259 254 259 258 256 258 261 266 269 274 273 275 278 287 299 306 308 309 307 309 306 305 306 305 302 300 298 293 292 290 288 287 287 290 290 292 293 288 286
nan nan nan nan nan nan nan nan nan nan nan nan nan nan nan nan nan nan nan nan nan nan nan nan nan nan nan 240 234 227 227 228 229 229 230 231 233 236 237 238 241 246 250 252 256 257 254 253 253 251 253 257 261 264 268 272 275 277 278 282 288 296 298 297 296 299 301 306 300 299 299 299 299 297 294 291 292 290 288 288 286 286 290 292 293 290
nan nan nan nan nan nan nan nan nan nan nan nan nan nan nan nan nan nan nan nan nan nan nan nan nan nan nan 242 234 217 219 225 229 230 231 232 235 238 239 241 247 250 252 253 253 254 255 255 254 251 249 252 256 260 263 264 269 274 280 285 288 287 288 284 285 292 295 297 300 299 298 301 295 295 296 296 292 290 287 285 282 279 282 286 289 291
nan nan nan nan nan nan nan nan nan nan nan nan nan nan nan nan nan nan nan nan nan nan nan nan nan nan nan nan nan 227 221 219 227 229 230 234 237 239 240 244 248 251 253 254 257 257 258 257 256 250 247 248 253 257 259 261 264 270 276 282 284 284 286 286 283 280 280 286 290 294 291 289 289 288 288 290 289 287 283 278 276 274 271 275 280 286
nan nan nan nan nan nan nan nan nan nan nan nan nan nan nan nan nan nan nan nan nan nan nan nan nan nan nan nan 223 222 222 219 223 231 234 235 238 240 243 247 248 250 253 255 256 256 257 259 254 250 246 247 251 253 255 259 262 267 272 276 280 282 283 285 285 284 285 287 287 287 288 289 290 288 285 284 282 279 274 270 267 265 265 268 276 284
nan nan nan nan nan nan nan nan nan nan nan nan nan nan nan nan nan nan nan nan nan nan nan nan nan nan nan nan 230 227 223 225 226 231 237 239 240 243 247 249 247 248 251 253 255 255 255 254 251 247 244 242 245 249 251 254 259 265 270 272 276 279 281 284 287 291 290 290 291 292 295 293 290 288 289 292 290 284 278 273 269 265 264 267 271 279
nan nan nan nan nan nan nan nan nan nan nan nan nan nan nan nan nan nan nan nan nan nan nan nan nan nan 224 223 227 228 224 226 231 233 237 241 245 250 253 252 250 248 250 250 250 251 249 249 248 246 247 249 252 252 253 256 259 264 269 271 275 278 280 282 284 287 291 293 294 294 293 290 288 289 289 288 286 284 280 277 273 266 262 264 267 270
nan nan nan nan nan nan nan nan nan nan nan nan nan nan nan nan nan nan nan nan nan nan nan nan nan 217 227 225 225 227 229 230 233 239 241 243 246 251 251 250 249 250 251 252 251 250 249 247 247 249 249 252 253 254 255 256 257 262 267 269 271 274 276 280 283 288 290 290 289 288 288 289 287 287 287 288 289 285 282 278 272 266 264 267 268 265
nan nan nan nan nan nan nan nan nan nan nan nan nan nan nan nan nan nan nan nan nan nan nan nan nan 212 219 225 223 221 227 232 239 243 246 248 249 251 250 246 247 249 251 253 253 252 251 250 250 250 252 252 253 254 256 258 260 262 265 267 271 273 276 279 282 285 286 286 284 284 286 288 288 287 286 287 288 285 283 277 270 268 267 267 268 264
nan nan nan nan nan nan nan nan nan nan nan nan nan nan nan nan nan nan nan nan nan nan nan nan 219 219 220 221 226 227 231 235 240 245 247 248 250 252 248 247 250 252 253 255 255 255 253 251 249 249 249 251 254 257 259 260 261 261 265 269 270 274 276 277 279 280 280 281 281 283 286 289 291 294 294 289 286 285 281 274 269 268 268 268 269 265
nan nan nan nan nan nan nan nan nan nan nan nan nan nan nan nan nan nan nan nan nan nan nan nan 226 229 225 219 227 228 235 240 243 245 249 251 253 254 252 252 256 257 257 259 259 256 251 247 247 249 252 253 254 256 nan nan nan nan nan 273 273 274 273 272 274 276 278 279 283 285 287 288 292 295 296 294 285 280 277 274 270 269 269 273 273 268
nan nan nan nan nan nan nan nan nan nan nan nan nan nan nan nan nan nan nan nan nan nan nan nan nan 229 225 229 236 237 241 244 245 248 250 253 255 256 255 258 260 260 260 261 259 254 250 249 nan nan nan nan nan nan nan nan nan nan nan nan nan 268 270 271 275 275 279 280 286 289 286 286 290 294 295 289 280 273 273 273 268 266 267 271 271 267
nan nan nan nan nan nan nan nan nan nan nan nan nan nan nan nan nan nan nan nan nan nan nan nan nan nan nan 233 245 251 250 251 252 252 252 254 256 258 256 259 259 259 259 260 258 nan nan nan nan nan nan nan nan nan nan nan nan nan nan nan nan nan nan 271 273 276 279 283 289 289 288 289 291 293 294 291 280 274 271 268 266 266 265 264 263 263
nan nan nan nan nan nan nan nan nan nan nan nan nan nan nan nan nan nan nan nan nan nan nan nan nan nan 227 230 241 250 253 253 254 254 254 255 254 254 255 256 259 260 261 nan nan nan nan nan nan nan nan nan nan nan nan nan nan nan nan nan nan nan nan nan nan 278 283 289 293 289 289 293 295 295 294 289 284 272 264 263 263 265 265 262 262 263
nan nan nan nan nan nan nan nan nan nan nan nan nan nan nan nan nan nan nan nan nan nan nan nan nan nan 222 224 238 246 247 251 253 254 254 257 256 257 259 262 264 264 nan nan nan nan nan nan nan nan nan nan nan nan nan nan nan nan nan nan nan nan nan nan nan nan 286 293 296 295 292 298 303 303 296 287 283 271 260 258 259 263 262 258 256 257
189 nan nan nan nan nan nan nan nan nan nan nan nan nan nan nan nan nan nan nan nan nan nan nan nan 229 223 226 240 246 250 254 255 256 256 256 259 261 263 263 nan nan nan nan nan nan nan nan nan nan nan nan nan nan nan nan nan nan nan nan nan nan nan nan nan nan nan 293 294 292 295 301 312 311 298 288 289 275 259 254 252 253 255 253 250 250
nan nan nan nan nan nan nan nan nan nan nan nan nan nan nan nan nan nan nan nan nan nan nan nan nan 229 230 229 244 251 253 255 252 257 260 258 259 263 264 264 nan nan nan nan nan nan nan nan nan nan nan nan nan nan nan nan nan nan nan nan nan nan nan nan nan nan nan 289 291 294 297 302 312 320 315 311 304 278 251 246 246 244 240 244 247 252
nan nan nan nan nan nan nan nan nan nan nan nan nan nan nan nan nan nan nan nan nan nan nan nan nan 234 239 240 249 256 258 257 256 258 261 263 263 264 265 nan nan nan nan nan nan nan nan nan nan nan nan nan nan nan nan nan nan nan nan nan nan nan nan nan nan nan nan nan 290 296 300 299 308 320 325 324 315 267 236 235 237 229 227 238 246 253
nan nan nan nan nan nan nan nan nan nan nan nan nan nan nan nan nan nan nan nan nan nan nan nan nan 242 251 253 257 259 261 260 260 262 262 264 267 266 264 nan nan nan nan nan nan nan nan nan nan nan nan nan nan nan nan nan nan nan nan nan nan nan nan nan nan nan nan nan nan nan 298 305 312 321 326 328 331 284 232 227 220 217 226 239 248 250
194 193 187 182 nan nan nan nan 195 nan nan nan nan nan nan nan nan nan nan nan nan nan nan nan 247 256 260 263 263 264 264 265 nan nan 264 265 264 262 262 nan nan nan nan nan nan nan nan nan nan nan nan nan nan nan nan nan nan nan nan nan nan nan nan nan nan nan nan nan nan nan nan nan 310 317 320 319 320 316 248 224 221 218 229 243 245 242
nan nan 195 195 202 199 200 202 194 193 nan nan nan nan nan nan nan nan nan nan nan nan nan 241 261 263 270 271 267 265 265 nan nan nan nan nan nan 261 261 nan nan nan nan nan nan nan nan nan nan nan nan nan nan nan nan nan nan nan nan nan nan nan nan nan nan nan nan nan nan nan nan nan 311 315 315 317 317 317 289 241 229 228 232 236 232 233
nan nan 202 203 206 203 202 204 205 209 205 207 211 213 nan nan 211 nan nan 229 nan nan nan 251 256 254 264 269 267 264 264 264 nan nan nan nan 260 260 259 nan nan nan nan nan nan nan nan nan nan nan nan nan nan nan nan nan nan nan nan nan nan nan nan nan nan nan nan nan nan 282 288 296 305 309 308 311 311 309 297 268 241 229 227 229 229 233
192 196 204 204 216 211 204 203 206 216 215 214 210 211 212 213 213 217 223 220 223 223 233 248 236 235 246 259 260 262 261 259 nan nan nan 256 256 254 253 nan nan nan nan nan nan nan nan nan nan nan nan nan nan nan nan nan nan nan nan nan nan nan nan nan nan nan nan nan nan nan 281 288 293 300 302 303 305 303 300 291 270 245 231 235 236 240
183 196 206 207 211 212 205 203 209 215 218 219 213 212 214 217 220 220 225 225 231 234 247 251 250 240 224 245 254 254 254 255 256 nan nan nan 251 nan nan nan nan nan nan nan nan nan nan nan nan nan nan nan nan nan nan nan nan nan nan nan nan nan nan nan nan nan nan nan nan nan nan nan nan nan nan nan nan nan nan 289 281 260 248 246 242 245
187 200 197 195 205 208 208 208 212 217 220 222 217 213 212 217 224 221 223 218 218 242 250 251 250 247 246 252 255 255 255 255 254 nan nan nan nan nan nan nan nan nan nan nan nan nan nan nan nan nan nan nan nan nan nan nan nan nan nan nan nan nan nan nan nan nan nan nan nan nan nan nan nan nan nan nan nan nan nan nan 283 268 249 nan 251 249
201 207 202 202 204 208 210 208 220 222 221 216 nan nan nan 216 220 225 224 221 212 226 246 239 239 nan 264 260 259 254 254 251 248 nan nan nan nan nan nan nan nan nan nan nan nan nan nan nan nan nan nan nan nan nan nan nan nan nan nan nan nan nan nan nan nan nan nan nan nan nan nan nan nan nan nan nan nan nan nan nan nan 271 254 246 246 249
208 209 206 211 205 211 nan 213 206 210 nan nan nan nan nan nan 220 227 nan 221 218 218 231 232 250 257 nan 255 256 253 250 246 246 nan nan nan nan nan nan nan nan nan nan nan nan nan nan nan nan nan nan nan nan nan nan nan nan nan nan nan nan nan nan nan nan nan nan nan nan nan nan nan nan nan nan nan nan nan nan nan nan nan nan nan 246 252
210 205 204 207 211 213 214 212 215 nan nan nan nan nan nan nan nan nan nan nan nan 239 248 nan nan nan nan 245 248 247 244 244 242 243 nan nan nan nan nan nan nan nan nan nan nan nan nan nan nan nan nan nan nan nan nan nan nan nan nan nan nan nan nan nan nan nan nan nan nan nan nan nan nan nan nan nan nan nan nan nan nan nan nan nan nan nan
206 207 209 207 211 215 214 nan nan nan nan nan nan nan nan nan nan nan nan nan nan nan nan nan nan nan nan 248 248 249 249 246 242 237 nan nan nan nan nan nan nan nan nan nan nan nan nan nan nan nan nan nan nan nan nan nan nan nan nan nan nan nan nan nan nan nan nan nan nan nan nan nan nan nan nan nan nan nan nan nan nan nan nan nan nan nan
201 208 209 214 207 213 213 nan nan nan nan nan nan nan nan nan nan nan nan nan nan nan nan nan nan nan nan 251 253 253 253 247 240 236 236 nan nan nan nan nan nan nan nan nan nan nan nan nan nan nan nan nan nan nan nan nan nan nan nan nan nan nan nan nan nan nan nan nan nan nan nan nan nan nan nan nan nan nan nan nan nan nan nan nan nan nan
186 190 208 216 nan 207 222 nan nan nan 219 nan nan nan nan nan nan nan nan nan nan nan nan nan nan nan nan 261 255 254 254 245 240 237 nan nan nan nan nan nan nan nan nan nan nan nan nan nan nan nan nan nan nan nan nan nan nan nan nan nan nan nan nan nan nan nan nan nan nan nan nan nan nan nan nan nan nan nan nan nan nan nan nan nan nan nan
195 200 200 202 213 nan 216 222 nan nan nan nan nan nan nan nan nan nan 225 237 nan nan nan nan nan nan nan 269 265 251 244 244 247 246 nan nan nan nan nan nan nan nan nan nan nan nan nan nan nan nan nan nan nan nan nan nan nan nan nan nan nan nan nan nan nan nan nan nan nan nan nan nan nan nan nan nan nan nan nan nan nan nan nan nan nan nan
201 197 nan 210 213 208 212 217 221 nan 221 nan nan nan nan nan nan nan nan 237 nan nan nan nan nan nan nan nan 263 nan 239 nan nan nan nan nan nan nan nan nan nan nan nan nan nan nan nan nan nan nan nan nan nan nan nan nan nan nan nan nan nan nan nan nan nan nan nan nan nan nan nan nan nan nan nan nan nan nan nan nan nan nan nan nan nan nan
nan nan 201 nan 214 nan 211 218 nan nan nan nan nan nan nan nan nan nan nan 236 nan nan nan nan nan nan nan nan nan nan nan nan nan nan nan nan nan nan nan nan nan nan nan nan nan nan nan nan nan nan nan nan nan nan nan nan nan nan nan nan nan nan nan nan nan nan nan nan nan nan nan nan nan nan nan nan nan nan nan nan nan nan nan nan nan nan
nan nan nan nan 217 nan 222 nan nan nan nan nan nan nan nan nan nan nan nan nan nan nan nan nan nan nan nan nan nan nan 254 258 nan nan nan nan nan nan nan nan nan nan nan nan nan nan nan nan nan nan nan nan nan nan nan nan nan nan nan nan nan nan nan nan nan nan nan nan nan nan nan nan nan nan nan nan nan nan nan nan nan nan nan nan nan nan
nan nan nan nan nan nan nan nan nan nan nan nan nan nan nan nan nan nan nan nan nan nan nan nan nan nan nan nan nan nan 260 nan nan nan nan nan nan nan nan nan nan nan nan nan nan nan nan nan nan nan nan nan nan nan nan nan nan nan nan nan nan nan nan nan nan nan nan nan nan nan nan nan nan nan nan nan nan nan nan nan nan nan nan nan nan nan
nan nan nan nan nan nan nan nan nan nan nan nan nan nan nan nan nan nan nan nan nan nan nan nan nan nan nan nan nan nan nan nan nan nan nan nan nan nan nan nan nan nan nan nan nan nan nan nan nan nan nan nan nan nan nan nan nan nan nan nan nan nan nan nan nan nan nan nan nan nan nan nan nan nan nan nan nan nan nan nan nan nan nan nan nan nan
nan nan nan nan nan nan nan nan nan nan nan nan nan nan nan nan nan nan nan nan nan nan nan nan nan nan nan nan nan nan nan nan nan nan nan nan nan nan nan nan nan nan nan nan nan nan nan nan nan nan nan nan nan nan nan nan nan nan nan nan nan nan nan nan nan nan nan nan nan nan nan nan nan nan nan nan nan nan nan nan nan nan nan nan nan nan
nan nan nan nan nan nan nan nan nan nan nan nan nan nan nan nan nan nan nan nan nan nan nan nan nan nan nan nan nan nan nan nan nan nan nan nan nan nan nan nan nan nan nan nan nan nan nan nan nan nan nan nan nan nan nan nan nan nan nan nan nan nan nan nan nan nan nan nan nan nan nan nan nan nan nan nan nan nan nan nan nan nan nan nan nan nan
nan nan nan nan nan nan nan nan nan nan nan nan nan nan nan nan nan nan nan nan nan nan nan nan nan nan nan nan nan nan nan nan nan nan nan nan nan nan nan nan nan nan nan nan nan nan nan nan nan nan nan nan nan nan nan nan nan nan nan nan nan nan nan nan nan nan nan nan nan nan nan nan nan nan nan nan nan nan nan nan nan nan nan nan nan nan
nan nan nan nan nan nan nan nan nan nan nan nan nan nan nan nan nan nan nan nan nan nan nan nan nan nan nan nan nan nan nan nan nan nan nan nan nan nan nan nan nan nan nan nan nan nan nan nan nan nan nan nan nan nan nan nan nan nan nan nan nan nan nan nan nan nan nan nan nan nan nan nan nan nan nan nan nan nan nan nan nan nan nan nan nan nan
nan nan nan nan nan nan nan nan nan nan nan nan nan nan nan nan nan nan nan nan nan nan nan nan nan nan nan nan nan nan nan nan nan nan nan nan nan nan nan nan nan nan nan nan nan nan nan nan nan nan nan nan nan nan nan nan nan nan nan nan nan nan nan nan nan nan nan nan nan nan nan nan nan nan nan nan nan nan nan nan nan nan nan nan nan nan
nan nan nan nan nan nan nan nan nan nan nan nan nan nan nan nan nan nan nan nan nan nan nan nan nan nan nan nan nan nan nan nan nan nan nan nan nan nan nan nan nan nan nan nan nan nan nan nan nan nan nan nan nan nan nan nan nan nan nan nan nan nan nan nan nan nan nan nan nan nan nan nan nan nan nan nan nan nan nan nan nan nan nan nan nan nan
nan nan nan nan nan nan nan nan nan nan nan nan nan nan nan nan nan nan nan nan nan nan nan nan nan nan nan nan nan nan nan nan nan nan nan nan nan nan nan nan nan nan nan nan nan nan nan nan nan nan nan nan nan nan nan nan nan nan nan nan nan nan nan nan nan nan nan nan nan nan nan nan nan nan nan nan nan nan nan nan nan nan nan nan nan nan